Meteo pe oră la Abadin

Astăzi, 24 Iulie, Sâmbătă

Timp Temperatura Precipitaţii Vânt Presiune Umiditate
00:00 +13°C° 0 mm 2 m/s 705 mmHg 89%
01:00 +13°C° 0 mm 2 m/s 705 mmHg 86%
02:00 +13°C° 0 mm 3 m/s 705 mmHg 83%
03:00 +13°C° 0 mm 3 m/s 705 mmHg 82%
04:00 +14°C° 0 mm 2 m/s 705 mmHg 82%
05:00 +14°C° 0 mm 2 m/s 705 mmHg 81%
06:00 +14°C° 0 mm 3 m/s 705 mmHg 79%
07:00 +14°C° 0 mm 3 m/s 706 mmHg 76%
08:00 +16°C° 0 mm 3 m/s 706 mmHg 74%
09:00 +17°C° 0.1 mm 3 m/s 706 mmHg 72%
10:00 +18°C° 0.1 mm 3 m/s 706 mmHg 70%
11:00 +19°C° 0.1 mm 3 m/s 706 mmHg 68%
12:00 +20°C° 0.2 mm 3 m/s 707 mmHg 64%
13:00 +20°C° 0.2 mm 3 m/s 707 mmHg 61%
14:00 +21°C° 0.2 mm 3 m/s 707 mmHg 57%
15:00 +20°C° 0 mm 3 m/s 707 mmHg 59%
16:00 +20°C° 0 mm 3 m/s 707 mmHg 62%
17:00 +19°C° 0 mm 3 m/s 707 mmHg 65%
18:00 +17°C° 0 mm 2 m/s 707 mmHg 75%
19:00 +15°C° 0 mm 2 m/s 707 mmHg 85%
20:00 +13°C° 0 mm 1 m/s 707 mmHg 96%
21:00 +13°C° 0 mm 1 m/s 707 mmHg 96%
22:00 +13°C° 0 mm 1 m/s 706 mmHg 96%
23:00 +13°C° 0 mm 1 m/s 706 mmHg 96%

Mâine, 25 Iulie, Duminică

Timp Temperatura Precipitaţii Vânt Presiune Umiditate
00:00 +13°C° 0 mm 1 m/s 706 mmHg 96%
01:00 +13°C° 0 mm 1 m/s 706 mmHg 95%
02:00 +13°C° 0 mm 1 m/s 706 mmHg 94%
03:00 +13°C° 0 mm 1 m/s 706 mmHg 94%
04:00 +13°C° 0 mm 1 m/s 706 mmHg 93%
05:00 +12°C° 0 mm 0 m/s 706 mmHg 92%
06:00 +14°C° 0 mm 0 m/s 706 mmHg 83%
07:00 +16°C° 0 mm 0 m/s 707 mmHg 75%
08:00 +17°C° 0 mm 0 m/s 707 mmHg 66%
09:00 +21°C° 0 mm 1 m/s 707 mmHg 61%
10:00 +22°C° 0 mm 1 m/s 707 mmHg 56%
11:00 +23°C° 0 mm 2 m/s 707 mmHg 50%
12:00 +23°C° 0 mm 2 m/s 707 mmHg 51%
13:00 +23°C° 0 mm 2 m/s 707 mmHg 51%
14:00 +24°C° 0 mm 3 m/s 707 mmHg 52%
15:00 +21°C° 0 mm 3 m/s 707 mmHg 57%
16:00 +20°C° 0 mm 3 m/s 707 mmHg 63%
17:00 +19°C° 0 mm 2 m/s 707 mmHg 69%
18:00 +17°C° 0 mm 2 m/s 707 mmHg 78%
19:00 +15°C° 0 mm 1 m/s 707 mmHg 87%
20:00 +14°C° 0 mm 1 m/s 708 mmHg 96%
21:00 +13°C° 0 mm 1 m/s 707 mmHg 97%
22:00 +11°C° 0 mm 0 m/s 707 mmHg 98%
23:00 +11°C° 0 mm 0 m/s 707 mmHg 99%

Poimâine, 26 Iulie, Luni

Timp Temperatura Precipitaţii Vânt Presiune Umiditate
00:00 +11°C° 0 mm 0 m/s 707 mmHg 99%
01:00 +11°C° 0 mm 0 m/s 707 mmHg 99%
02:00 +10°C° 0 mm 0 m/s 707 mmHg 99%
03:00 +11°C° 0 mm 0 m/s 707 mmHg 99%
04:00 +11°C° 0 mm 0 m/s 707 mmHg 98%
05:00 +11°C° 0 mm 0 m/s 707 mmHg 98%
06:00 +13°C° 0 mm 0 m/s 708 mmHg 88%
07:00 +16°C° 0 mm 1 m/s 708 mmHg 78%
08:00 +20°C° 0 mm 1 m/s 709 mmHg 68%
09:00 +21°C° 0 mm 1 m/s 709 mmHg 60%
10:00 +23°C° 0 mm 2 m/s 709 mmHg 52%
11:00 +24°C° 0 mm 2 m/s 709 mmHg 45%
12:00 +24°C° 0 mm 2 m/s 709 mmHg 46%
13:00 +24°C° 0 mm 2 m/s 708 mmHg 47%
14:00 +24°C° 0 mm 3 m/s 708 mmHg 48%
15:00 +22°C° 0 mm 3 m/s 708 mmHg 54%
16:00 +21°C° 0 mm 2 m/s 708 mmHg 59%
17:00 +19°C° 0 mm 2 m/s 708 mmHg 64%
18:00 +17°C° 0 mm 2 m/s 708 mmHg 75%
19:00 +15°C° 0 mm 1 m/s 708 mmHg 87%
20:00 +13°C° 0 mm 1 m/s 708 mmHg 98%
21:00 +13°C° 0 mm 1 m/s 708 mmHg 98%
22:00 +12°C° 0 mm 1 m/s 708 mmHg 98%
23:00 +11°C° 0 mm 0 m/s 708 mmHg 99%

27 Iulie, Marţi

Timp Temperatura Precipitaţii Vânt Presiune Umiditate
00:00 +12°C° 0 mm 1 m/s 708 mmHg 99%
01:00 +12°C° 0 mm 1 m/s 707 mmHg 99%
02:00 +11°C° 0 mm 1 m/s 707 mmHg 99%
03:00 +12°C° 0 mm 1 m/s 707 mmHg 98%
04:00 +11°C° 0 mm 0 m/s 707 mmHg 97%
05:00 +11°C° 0 mm 0 m/s 708 mmHg 97%
06:00 +14°C° 0.1 mm 1 m/s 708 mmHg 89%
07:00 +16°C° 0.1 mm 1 m/s 708 mmHg 80%
08:00 +18°C° 0.1 mm 1 m/s 708 mmHg 72%
09:00 +19°C° 0 mm 1 m/s 709 mmHg 67%
10:00 +19°C° 0 mm 2 m/s 709 mmHg 61%
11:00 +20°C° 0 mm 2 m/s 709 mmHg 56%
12:00 +20°C° 0 mm 2 m/s 709 mmHg 57%
13:00 +20°C° 0 mm 3 m/s 709 mmHg 58%
14:00 +20°C° 0 mm 3 m/s 709 mmHg 58%
15:00 +19°C° 0 mm 3 m/s 709 mmHg 62%
16:00 +19°C° 0 mm 3 m/s 709 mmHg 65%
17:00 +18°C° 0 mm 3 m/s 709 mmHg 69%
18:00 +16°C° 0 mm 2 m/s 709 mmHg 78%
19:00 +15°C° 0 mm 2 m/s 709 mmHg 88%
20:00 +13°C° 0 mm 2 m/s 710 mmHg 97%
21:00 +13°C° 0.1 mm 2 m/s 710 mmHg 96%
22:00 +14°C° 0.1 mm 2 m/s 710 mmHg 94%
23:00 +14°C° 0.1 mm 2 m/s 710 mmHg 92%

28 Iulie, Miercuri

Timp Temperatura Precipitaţii Vânt Presiune Umiditate
00:00 +14°C° 0 mm 2 m/s 709 mmHg 92%
01:00 +14°C° 0 mm 2 m/s 709 mmHg 92%
02:00 +14°C° 0 mm 2 m/s 709 mmHg 92%
03:00 +13°C° 0 mm 2 m/s 709 mmHg 93%
04:00 +13°C° 0 mm 1 m/s 709 mmHg 93%
05:00 +13°C° 0 mm 1 m/s 709 mmHg 94%
06:00 +14°C° 0 mm 2 m/s 709 mmHg 89%
07:00 +15°C° 0 mm 2 m/s 709 mmHg 84%
08:00 +16°C° 0 mm 2 m/s 710 mmHg 79%
09:00 +17°C° 0 mm 2 m/s 710 mmHg 71%
10:00 +19°C° 0 mm 3 m/s 710 mmHg 64%
11:00 +21°C° 0 mm 3 m/s 710 mmHg 57%
12:00 +21°C° 0 mm 3 m/s 710 mmHg 55%
13:00 +21°C° 0 mm 3 m/s 709 mmHg 54%
14:00 +22°C° 0 mm 3 m/s 709 mmHg 52%
15:00 +21°C° 0 mm 3 m/s 709 mmHg 57%
16:00 +20°C° 0 mm 3 m/s 709 mmHg 62%
17:00 +19°C° 0 mm 3 m/s 709 mmHg 66%
18:00 +17°C° 0 mm 2 m/s 709 mmHg 77%
19:00 +15°C° 0 mm 2 m/s 709 mmHg 87%
20:00 +13°C° 0 mm 1 m/s 709 mmHg 97%
21:00 +13°C° 0 mm 1 m/s 709 mmHg 96%
22:00 +13°C° 0 mm 1 m/s 708 mmHg 95%
23:00 +13°C° 0 mm 1 m/s 708 mmHg 94%

29 Iulie, Joi

Timp Temperatura Precipitaţii Vânt Presiune Umiditate
00:00 +13°C° 0 mm 1 m/s 708 mmHg 95%
01:00 +12°C° 0 mm 0 m/s 708 mmHg 95%
02:00 +11°C° 0 mm 0 m/s 707 mmHg 95%
03:00 +11°C° 0 mm 0 m/s 707 mmHg 95%
04:00 +11°C° 0 mm 0 m/s 707 mmHg 95%
05:00 +11°C° 0 mm 0 m/s 707 mmHg 94%
06:00 +14°C° 0 mm 0 m/s 708 mmHg 81%
07:00 +18°C° 0 mm 1 m/s 708 mmHg 68%
08:00 +21°C° 0 mm 1 m/s 708 mmHg 54%
09:00 +22°C° 0 mm 1 m/s 709 mmHg 51%
10:00 +24°C° 0 mm 2 m/s 709 mmHg 47%
11:00 +25°C° 0 mm 2 m/s 709 mmHg 44%
12:00 +25°C° 0 mm 3 m/s 709 mmHg 45%
13:00 +25°C° 0 mm 3 m/s 709 mmHg 47%
14:00 +25°C° 0 mm 3 m/s 708 mmHg 48%
15:00 +22°C° 0 mm 3 m/s 709 mmHg 51%
16:00 +21°C° 0 mm 3 m/s 709 mmHg 54%
17:00 +19°C° 0 mm 3 m/s 709 mmHg 57%
18:00 +17°C° 0 mm 2 m/s 709 mmHg 70%
19:00 +15°C° 0 mm 1 m/s 709 mmHg 82%
20:00 +12°C° 0 mm 1 m/s 709 mmHg 95%
21:00 +12°C° 0 mm 1 m/s 709 mmHg 95%
22:00 +12°C° 0 mm 1 m/s 709 mmHg 95%
23:00 +12°C° 0 mm 1 m/s 709 mmHg 95%
Arată mai mult

Formular de consimțământ

Meteoprog și furnizorii noștri de servicii pot stoca și accesa date personale, precum cookies, identificatori de dispozitiv sau alte tehnologii similare pe dispozitivul dumneavoastră și procesa astfel de date pentru a personaliza conținutul și reclamele, dar și pentru a oferi caracteristici de social media și pentru a analiza traficul.

  • Stocarea și/sau accesarea informațiilor pe dispozitivul dumneavoastră

    Cookies, identificatori de dispozitiv sau alte informații pot fi stocate sau accesate pe dispozitiv în scopurile indicate mai sus.

  • Reclame și conținut personalizat, evaluarea reclamelor și a conținutului, informații despre audiențe și dezvoltarea produselor

    Reclamele și conținutul pot fi personalizate pe baza unui profil. Pot fi adăugate date suplimentare pentru a personaliza mai bine reclamele și conținutul. Performanța reclamelor și conținutului poate fi măsurată. Pot fi obținute informații despre utilizatorii care au văzut reclamele și conținutul. Aceste date pot fi utilizate pentru a dezvolta sau îmbunătăți experiența utilizatorilor, sistemele și software-ul.

Dând clic pe ‘Sunt de acord’, permiteți utilizarea cookie-urilor menționate, a identificatorilor de dispozitiv, balizelor web sau altor tehnologii similare. Setările pot fi modificate din browser-ul dispozitivului dumneavoastră.

În anumite scopuri, interesele legitime pot prima asupra consimțământului. Puteți citi mai multe informații în acest sens în Politica privind Confidențialitatea Datelor și Cookie.